Location: Home
(42.5358°N, 72.7383°W)
Time: 17:21:53
(UTC-05:00)

A-11 Canister half - Pass Details

Date: 05 December 2021
Orbit: 1516 x 1684 km, 47.2° (Epoch: 18 January)

Event Time Altitude Azimuth Distance (km) Brightness Sun altitude
Rises 09:51:54 0° 281° (W) 4,826 11.3 20.3°
Reaches altitude 10° 09:55:01 10° 284° (WNW) 3,862 10.8 20.5°
Maximum altitude 10:04:56 70° 7° (N) 1,757 9.5 21.3°
Drops below altitude 10° 10:15:05 10° 91° (E) 3,945 11.5 22.0°
Sets 10:18:19 0° 94° (E) 4,935 12.0 22.2°
